2023/02/01 00:00:00,104.2,-4.4
2023/02/01 00:10:00,104.1,-4.3
2023/02/01 00:20:00,104.0,-4.3
2023/02/01 00:30:00,103.8,-4.6
2023/02/01 00:40:00,103.8,-4.3
2023/02/01 00:50:00,103.7,-4.4
2023/02/01 01:00:00,103.9,-4.7
2023/02/01 01:10:00,104.0,-4.8
2023/02/01 01:20:00,104.0,-4.8
2023/02/01 01:30:00,104.1,-4.8
2023/02/01 01:40:00,104.0,-4.8
2023/02/01 01:50:00,104.0,-4.8
2023/02/01 02:00:00,104.0,-4.7
2023/02/01 02:10:00,104.0,-4.7
2023/02/01 02:20:00,104.0,-4.7
2023/02/01 02:30:00,104.0,-4.7
2023/02/01 02:40:00,103.9,-4.6
2023/02/01 02:50:00,103.8,-4.8
2023/02/01 03:00:00,103.7,-4.8
2023/02/01 03:10:00,103.7,-4.6
2023/02/01 03:20:00,103.6,-4.8
2023/02/01 03:30:00,103.4,-4.8
2023/02/01 03:40:00,103.3,-4.9
2023/02/01 03:50:00,103.4,-4.4
2023/02/01 04:00:00,103.6,-4.6
2023/02/01 04:10:00,103.7,-4.6
2023/02/01 04:20:00,103.5,-4.7
2023/02/01 04:30:00,103.5,-4.8
2023/02/01 04:40:00,103.4,-4.8
2023/02/01 04:50:00,103.4,-4.7
2023/02/01 05:00:00,103.4,-4.7
2023/02/01 05:10:00,103.4,-4.5
2023/02/01 05:20:00,103.3,-4.3
2023/02/01 05:30:00,103.2,-4.3
2023/02/01 05:40:00,103.1,-4.6
2023/02/01 05:50:00,103.0,-4.5
2023/02/01 06:00:00,103.0,-4.1
2023/02/01 06:10:00,103.0,-3.8
2023/02/01 06:20:00,103.0,-3.3
2023/02/01 06:30:00,103.1,-3.5
2023/02/01 06:40:00,103.0,-2.8
2023/02/01 06:50:00,102.8,-2.7
2023/02/01 07:00:00,102.7,-2.8
2023/02/01 07:10:00,102.7,-2.3
2023/02/01 07:20:00,102.7,-2.2
2023/02/01 07:30:00,102.8,-2.3
2023/02/01 07:40:00,102.9,-1.9
2023/02/01 07:50:00,102.9,-1.8
2023/02/01 08:00:00,102.7,-1.6
2023/02/01 08:10:00,102.6,-1.3
2023/02/01 08:20:00,102.5,-1.1
2023/02/01 08:30:00,102.4,-0.4
2023/02/01 08:40:00,102.2,-0.7
2023/02/01 08:50:00,102.1, 0.3
2023/02/01 09:00:00,102.0, 0.3
2023/02/01 09:10:00,102.1, 0.1
2023/02/01 09:20:00,102.1, 0.7
2023/02/01 09:30:00,102.0, 0.8
2023/02/01 09:40:00,102.0, 0.9
2023/02/01 09:50:00,101.8, 1.4
2023/02/01 10:00:00,101.8, 2.5
2023/02/01 10:10:00,101.7, 2.2
2023/02/01 10:20:00,101.7, 2.8
2023/02/01 10:30:00,101.5, 3.3
2023/02/01 10:40:00,101.4, 3.3
2023/02/01 10:50:00,101.2, 2.7
2023/02/01 11:00:00,101.1, 2.8
2023/02/01 11:10:00,101.0, 4.2
2023/02/01 11:20:00,100.7, 5.8
2023/02/01 11:30:00,100.8, 4.9
2023/02/01 11:40:00,100.8, 5.7
2023/02/01 11:50:00,100.8, 4.8
2023/02/01 12:00:00,100.8, 3.3
2023/02/01 12:10:00,100.7, 2.2
2023/02/01 12:20:00,100.5, 1.8
2023/02/01 12:30:00,100.5, 1.1
2023/02/01 12:40:00,100.5, 1.0
2023/02/01 12:50:00,100.4, 2.4
2023/02/01 13:00:00,100.3, 3.7
2023/02/01 13:10:00,100.1, 4.7
2023/02/01 13:20:00,99.7, 5.0
2023/02/01 13:30:00,99.8, 3.6
2023/02/01 13:40:00,99.9, 3.9
2023/02/01 13:50:00,100.0, 3.3
2023/02/01 14:00:00,99.6, 3.4
2023/02/01 14:10:00,99.5, 2.8
2023/02/01 14:20:00,100.0, 2.5
2023/02/01 14:30:00,99.4, 2.2
2023/02/01 14:40:00,99.3, 2.1
2023/02/01 14:50:00,99.3, 1.5
2023/02/01 15:00:00,99.1, 1.6
2023/02/01 15:10:00,99.2, 1.6
2023/02/01 15:20:00,98.9, 1.1
2023/02/01 15:30:00,98.8, 1.3
2023/02/01 15:40:00,98.8, 0.5
2023/02/01 15:50:00,98.4, 1.1
2023/02/01 16:00:00,98.2, 0.6
2023/02/01 16:10:00,98.2, 1.1
2023/02/01 16:20:00,98.3, 1.2
2023/02/01 16:30:00,98.2, 0.5
2023/02/01 16:40:00,98.1, 0.6
2023/02/01 16:50:00,98.3, 0.4
2023/02/01 17:00:00,98.5, 0.3
2023/02/01 17:10:00,97.8, 0.2
2023/02/01 17:20:00,97.7, 0.2
2023/02/01 17:30:00,97.4, 0.7
2023/02/01 17:40:00,97.3, 0.7
2023/02/01 17:50:00,97.2, 0.6
2023/02/01 18:00:00,96.8, 0.4
2023/02/01 18:10:00,96.3, 0.6
2023/02/01 18:20:00,96.2, 0.5
2023/02/01 18:30:00,96.8, 0.7
2023/02/01 18:40:00,96.7, 0.4
2023/02/01 18:50:00,96.3, 0.7
2023/02/01 19:00:00,96.3, 0.7
2023/02/01 19:10:00,96.2, 0.6
2023/02/01 19:20:00,95.9, 0.4
2023/02/01 19:30:00,95.8, 1.0
2023/02/01 19:40:00,95.7, 0.7
2023/02/01 19:50:00,95.4, 1.0
2023/02/01 20:00:00,95.3, 0.5
2023/02/01 20:10:00,95.3, 0.0
2023/02/01 20:20:00,95.2, 0.7
2023/02/01 20:30:00,95.0, 0.5
2023/02/01 20:40:00,95.2, 0.7
2023/02/01 20:50:00,94.9, 0.3
2023/02/01 21:00:00,94.7, 0.4
2023/02/01 21:10:00,94.4, 0.4
2023/02/01 21:20:00,94.4, 0.4
2023/02/01 21:30:00,94.3, 0.5
2023/02/01 21:40:00,94.2, 0.1
2023/02/01 21:50:00,94.4,-0.2
2023/02/01 22:00:00,94.6,-0.1
2023/02/01 22:10:00,94.5,-0.2
2023/02/01 22:20:00,94.6,-0.5
2023/02/01 22:30:00,94.5,-0.2
2023/02/01 22:40:00,94.6,-0.4
2023/02/01 22:50:00,94.5,-0.4
2023/02/01 23:00:00,94.5,-0.8
2023/02/01 23:10:00,94.4,-0.5
2023/02/01 23:20:00,94.3,-0.2
2023/02/01 23:30:00,94.3,-0.4
2023/02/01 23:40:00,94.2, 0.0
2023/02/01 23:50:00,94.5,-0.3
